This is the latest recevied weather packets stored in our database for station/object N7TUG-8. If no packets are shown the sender has not sent any weather packets the latest 10 day(s).
| Time | Temp. | Humidity | Pressure | Rain* | Wind** | Luminosity | Snow |
|---|---|---|---|---|---|---|---|
| 1777684377 | 17.78° C | 70% | 1014.1 hPa | 0 mm | 2.24 m/s, 311° | - | - |
| 1777684306 | 17.78° C | 70% | 1014.1 hPa | 0 mm | 2.24 m/s, 311° | - | - |
| 1777683451 | 18.33° C | 69% | 1014 hPa | 0 mm | 2.24 m/s, 319° | - | - |
| 1777682651 | 18.33° C | 68% | 1014 hPa | 0 mm | 2.24 m/s, 335° | - | - |
| 1777681866 | 18.89° C | 65% | 1013.9 hPa | 0 mm | 2.24 m/s, 345° | - | - |
| 1777681022 | 18.33° C | 68% | 1013.9 hPa | 0 mm | 2.68 m/s, 338° | - | - |
| 1777680256 | 18.89° C | 66% | 1013.9 hPa | 0 mm | 2.68 m/s, 328° | - | - |
| 1777680202 | 18.89° C | 66% | 1013.9 hPa | 0 mm | 2.68 m/s, 328° | - | - |
| 1777679306 | 18.89° C | 66% | 1013.9 hPa | 0 mm | 2.24 m/s, 330° | - | - |
| 1777678558 | 18.33° C | 66% | 1014 hPa | 0 mm | 3.13 m/s, 323° | - | - |
| 1777678526 | 18.33° C | 66% | 1014 hPa | 0 mm | 3.13 m/s, 323° | - | - |
| 1777677807 | 18.33° C | 65% | 1014.1 hPa | 0 mm | 3.13 m/s, 330° | - | - |
| 1777677591 | 18.33° C | 65% | 1014.2 hPa | 0 mm | 4.47 m/s, 325° | - | - |
| 1777677002 | 18.89° C | 65% | 1014.3 hPa | 0 mm | 2.68 m/s, 324° | - | - |
| 1777676696 | 18.33° C | 66% | 1014.5 hPa | 0 mm | 3.13 m/s, 333° | - | - |
| 1777675881 | 18.33° C | 67% | 1014.6 hPa | 0 mm | 3.58 m/s, 334° | - | - |
| 1777675392 | 17.78° C | 68% | 1014.6 hPa | 0 mm | 4.02 m/s, 334° | - | - |
| 1777675006 | 17.78° C | 69% | 1014.7 hPa | 0 mm | 3.58 m/s, 338° | - | - |
| 1777674596 | 17.78° C | 69% | 1014.8 hPa | 0 mm | 4.02 m/s, 342° | - | - |
| 1777674113 | 17.78° C | 69% | 1014.9 hPa | 0 mm | 4.47 m/s, 330° | - | - |
| 1777673817 | 18.33° C | 68% | 1014.9 hPa | 0 mm | 3.58 m/s, 332° | - | - |
| 1777673311 | 18.33° C | 68% | 1014.9 hPa | 0 mm | 4.02 m/s, 326° | - | - |
| 1777672957 | 18.33° C | 68% | 1014.9 hPa | 0 mm | 3.58 m/s, 326° | - | - |
| 1777672431 | 18.33° C | 67% | 1014.9 hPa | 0 mm | 4.02 m/s, 321° | - | - |
| 1777672187 | 18.89° C | 67% | 1014.9 hPa | 0 mm | 3.58 m/s, 319° | - | - |
* Rain latest hour (hover to see other rain measurements)
** Current wind speed in m/s (hover to see current wind gust speed)